Location: Untermarchtal
(48.2403°N, 9.6117°E)
Time: 07:25:57
(UTC+02:00)

ISS - Visible Passes

Search period start: 29 March 2017 00:00
Search period end: 08 April 2017 00:00
Orbit: 399 x 409 km, 51.6° (Epoch: 29 March)

Date Brightness Start Highest point End Pass type
(mag) Time Alt. Az. Time Alt. Az. Time Alt. Az.
29 Mar -4.0 21:41:54 10° WSW 21:45:05 78° S 21:45:05 78° S visible
30 Mar -3.6 20:49:40 10° SW 20:52:50 50° SSE 20:55:19 15° ENE visible
30 Mar -1.9 22:26:08 10° W 22:28:00 29° WNW 22:28:00 29° WNW visible
31 Mar -3.5 21:33:38 10° W 21:36:52 65° NNW 21:38:02 35° NE visible
31 Mar -0.5 23:10:29 10° WNW 23:10:43 12° WNW 23:10:43 12° WNW visible
01 Apr -3.9 20:41:11 10° WSW 20:44:27 90° NNE 20:47:44 10° ENE visible
01 Apr -2.5 22:17:58 10° WNW 22:20:37 40° NNW 22:20:37 40° NNW visible
02 Apr -3.0 21:25:25 10° W 21:28:36 48° N 21:30:24 22° ENE visible
02 Apr -0.9 23:02:11 10° WNW 23:03:03 17° WNW 23:03:03 17° WNW visible
03 Apr -3.3 20:32:52 10° W 20:36:06 59° NNW 20:39:21 10° ENE visible
03 Apr -2.9 22:09:42 10° WNW 22:12:46 45° N 22:12:46 45° N visible
04 Apr -2.9 21:17:11 10° WNW 21:20:19 43° N 21:22:25 18° ENE visible
04 Apr -1.3 22:53:47 10° WNW 22:55:04 22° WNW 22:55:04 22° WNW visible
05 Apr -2.9 20:24:36 10° W 20:27:46 46° N 20:30:56 10° ENE visible
05 Apr -3.4 22:01:20 10° WNW 22:04:33 55° NNE 22:04:40 55° NNE visible
06 Apr -3.1 21:08:49 10° WNW 21:12:00 46° N 21:14:16 17° ENE visible
06 Apr -1.7 22:45:20 10° WNW 22:46:54 26° WNW 22:46:54 26° WNW visible
07 Apr -3.9 21:52:50 10° WNW 21:56:07 81° NNE 21:56:28 67° E visible
